Aroma Park, IL

3:40 AM CDT on August 25, 2016 (GMT -0500)
Greater Kankakee

Weather History for KIKK - October, 2012

Change the Weather History Date:

Tuesday, October 2, 2012

  Actual Average Record
Temperature  
Mean Temperature 62 °F -  
Max Temperature 72 °F 71 °F 91 °F (2006)
Min Temperature 52 °F 43 °F 26 °F (2003)
Degree Days  
Heating Degree Days 4    
Growing Degree Days 12 (Base 50)    
Moisture  
Dew Point 48 °F    
Average Humidity 63    
Maximum Humidity 89    
Minimum Humidity 34    
Precipitation  
Precipitation 0.00 in - - ()
Sea Level Pressure  
Sea Level Pressure 29.84 in    
Wind  
Wind Speed 7 mph (NE)    
Max Wind Speed 18 mph    
Max Gust Speed 24 mph    
Visibility 10 miles    
Events Rain    
Averages and records for this station are not official NWS values.
T = Trace of Precipitation, MM = Missing Value Source: NWS Daily Summary

Daily Weather History Graph

Daily Weather History Graph

Search for Another Location

Airport or City:

Trip Planner

Search our weather history database for the weather conditions in past years. The results will help you decide how hot, cold, wet, or windy it might be!

Date:

Astronomy

Oct. 02, 2012 Rise Set
Actual Time 6:49 AM CDT 6:30 PM CDT
Civil Twilight 6:22 AM CDT 6:58 PM CDT
Nautical Twilight 5:50 AM CDT 7:30 PM CDT
Astronomical Twilight 5:18 AM CDT 8:02 PM CDT
Moon 7:41 PM CDT (10/2) 9:18 AM CDT (10/2)
Length of Visible Light 12h 36m
Length of Day
11h 41m
Waning Gibbous, 94% of the Moon is Illuminated
Oct 2
Waning Gibbous
Oct 8
Last Quarter
Oct 15
New
Oct 21
First Quarter
Oct 29
Full

Hourly Weather History & Observations

Time (CDT) Temp. Dew Point Humidity Pressure Visibility Wind Dir Wind Speed Gust Speed Precip Events Conditions
12:15 AM 58.1 °F 48.7 °F 71% 29.81 in 10.0 mi NNE 5.8 mph - N/A   Clear
12:35 AM 59.0 °F 48.2 °F 67% 29.80 in 10.0 mi NNE 6.9 mph - N/A   Clear
12:55 AM 57.7 °F 49.1 °F 73% 29.80 in 10.0 mi NNE 5.8 mph - N/A   Clear
1:15 AM 57.2 °F 48.7 °F 73% 29.80 in 10.0 mi North 4.6 mph - N/A   Scattered Clouds
1:35 AM 57.2 °F 49.1 °F 74% 29.81 in 10.0 mi NNE 4.6 mph - N/A   Scattered Clouds
1:55 AM 56.8 °F 49.1 °F 75% 29.80 in 10.0 mi North 5.8 mph - N/A   Clear
2:15 AM 57.2 °F 49.3 °F 75% 29.80 in 10.0 mi North 5.8 mph - N/A   Clear
2:35 AM 57.4 °F 48.9 °F 73% 29.80 in 10.0 mi NNE 4.6 mph - N/A   Clear
2:55 AM 57.2 °F 48.6 °F 73% 29.80 in 10.0 mi North 4.6 mph - N/A   Scattered Clouds
3:15 AM 57.4 °F 48.0 °F 71% 29.81 in 10.0 mi NNE 4.6 mph - N/A   Scattered Clouds
3:35 AM 57.2 °F 48.2 °F 72% 29.81 in 10.0 mi NNE 3.5 mph - N/A   Clear
3:55 AM 56.8 °F 48.4 °F 73% 29.81 in 10.0 mi NNE 5.8 mph - N/A   Clear
4:15 AM 56.8 °F 48.0 °F 72% 29.81 in 10.0 mi North 6.9 mph - N/A   Clear
4:35 AM 56.8 °F 47.5 °F 71% 29.81 in 10.0 mi NNE 5.8 mph - N/A   Clear
4:55 AM 56.3 °F 47.3 °F 72% 29.82 in 10.0 mi North 4.6 mph - N/A   Clear
5:15 AM 56.5 °F 46.4 °F 69% 29.82 in 10.0 mi NNE 5.8 mph - N/A   Clear
5:35 AM 56.1 °F 45.7 °F 68% 29.83 in 10.0 mi NNE 6.9 mph - N/A   Clear
5:55 AM 55.9 °F 45.5 °F 68% 29.83 in 10.0 mi NE 6.9 mph - N/A   Clear
6:15 AM 54.9 °F 45.0 °F 69% 29.84 in 10.0 mi NE 6.9 mph - N/A   Clear
6:35 AM 53.6 °F 45.0 °F 73% 29.83 in 10.0 mi NE 5.8 mph - N/A   Clear
6:55 AM 53.1 °F 44.8 °F 73% 29.84 in 10.0 mi North 4.6 mph - N/A   Clear
7:15 AM 52.7 °F 44.8 °F 74% 29.85 in 10.0 mi Calm Calm - N/A   Clear
7:35 AM 54.0 °F 45.5 °F 73% 29.85 in 10.0 mi Calm Calm - N/A   Clear
7:55 AM 53.8 °F 46.0 °F 75% 29.86 in 10.0 mi Calm Calm - N/A   Clear
8:15 AM 55.2 °F 46.8 °F 73% 29.86 in 10.0 mi NNE 3.5 mph - N/A   Clear
8:35 AM 58.1 °F 47.5 °F 68% 29.86 in 10.0 mi NE 8.1 mph - N/A   Clear
8:55 AM 59.7 °F 47.3 °F 63% 29.85 in 10.0 mi NNE 9.2 mph - N/A   Clear
9:15 AM 59.9 °F 47.7 °F 64% 29.85 in 10.0 mi NE 9.2 mph - N/A   Clear
9:35 AM 61.5 °F 47.3 °F 60% 29.85 in 10.0 mi NNE 10.4 mph - N/A   Clear
9:55 AM 64.6 °F 47.3 °F 53% 29.85 in 10.0 mi NE 13.8 mph 19.6 mph N/A   Clear
10:15 AM 66.4 °F 45.7 °F 47% 29.85 in 10.0 mi NE 13.8 mph 24.2 mph N/A   Clear
10:35 AM 67.3 °F 45.5 °F 45% 29.85 in 10.0 mi NE 15.0 mph 23.0 mph N/A   Clear
10:55 AM 68.0 °F 44.8 °F 43% 29.84 in 10.0 mi NE 13.8 mph 20.7 mph N/A   Scattered Clouds
11:15 AM 68.7 °F 43.9 °F 41% 29.85 in 10.0 mi NE 12.7 mph 21.9 mph N/A   Mostly Cloudy
11:35 AM 67.5 °F 43.0 °F 41% 29.84 in 10.0 mi NE 12.7 mph 18.4 mph N/A   Clear
11:55 AM 69.1 °F 41.2 °F 36% 29.84 in 10.0 mi NE 15.0 mph 23.0 mph N/A   Clear
12:15 PM 66.4 °F 39.7 °F 38% 29.84 in 10.0 mi NE 12.7 mph 24.2 mph N/A   Clear
12:35 PM 67.6 °F 39.4 °F 36% 29.83 in 10.0 mi NE 15.0 mph - N/A   Clear
12:55 PM 70.2 °F 40.3 °F 34% 29.83 in 10.0 mi NE 18.4 mph 21.9 mph N/A   Scattered Clouds
1:15 PM 70.2 °F 41.7 °F 36% 29.83 in 10.0 mi North 9.2 mph 18.4 mph N/A   Scattered Clouds
1:35 PM 70.5 °F 43.0 °F 37% 29.82 in 10.0 mi NNE 10.4 mph 17.3 mph N/A   Scattered Clouds
1:55 PM 71.8 °F 43.2 °F 36% 29.82 in 10.0 mi NNE 10.4 mph 17.3 mph N/A   Scattered Clouds
2:15 PM 69.1 °F 44.2 °F 41% 29.82 in 10.0 mi NNE 11.5 mph 19.6 mph N/A   Scattered Clouds
2:35 PM 68.7 °F 46.6 °F 45% 29.82 in 10.0 mi NNE 11.5 mph 18.4 mph N/A Rain Light Rain
2:55 PM 68.0 °F 48.2 °F 49% 29.82 in 10.0 mi NNE 10.4 mph - N/A Rain Light Rain
3:15 PM 67.6 °F 48.0 °F 49% 29.83 in 10.0 mi NE 12.7 mph 18.4 mph N/A Rain Light Rain
3:35 PM 65.1 °F 50.2 °F 58% 29.83 in 10.0 mi NE 8.1 mph - N/A Rain Light Rain
3:55 PM 64.9 °F 48.9 °F 56% 29.83 in 10.0 mi NNE 6.9 mph - N/A   Overcast
4:15 PM 64.2 °F 49.3 °F 58% 29.83 in 10.0 mi NE 12.7 mph 18.4 mph N/A   Drizzle
4:35 PM 63.3 °F 49.8 °F 61% 29.83 in 10.0 mi NE 9.2 mph - N/A   Overcast
4:55 PM 64.4 °F 49.6 °F 59% 29.83 in 10.0 mi NE 6.9 mph - N/A   Overcast
5:15 PM 63.9 °F 49.5 °F 59% 29.83 in 10.0 mi NE 11.5 mph - N/A   Overcast
5:35 PM 63.9 °F 48.7 °F 58% 29.84 in 10.0 mi NE 8.1 mph - N/A   Overcast
5:55 PM 63.7 °F 48.6 °F 58% 29.84 in 10.0 mi NNE 5.8 mph - N/A   Overcast
6:15 PM 63.5 °F 48.6 °F 58% 29.85 in 10.0 mi NE 4.6 mph - N/A   Overcast
6:35 PM 62.6 °F 49.5 °F 62% 29.86 in 10.0 mi ENE 6.9 mph - N/A   Overcast
6:55 PM 62.6 °F 49.5 °F 62% 29.86 in 10.0 mi NE 5.8 mph - N/A   Overcast
7:15 PM 62.4 °F 49.5 °F 63% 29.87 in 10.0 mi NE 6.9 mph - N/A   Overcast
7:35 PM 62.8 °F 49.3 °F 61% 29.87 in 10.0 mi NE 6.9 mph - N/A   Overcast
7:55 PM 62.2 °F 50.0 °F 64% 29.88 in 10.0 mi NE 8.1 mph - N/A   Overcast
8:15 PM 61.7 °F 50.9 °F 68% 29.89 in 10.0 mi East 4.6 mph - N/A   Overcast
8:35 PM 61.3 °F 51.8 °F 71% 29.89 in 10.0 mi East 4.6 mph - N/A   Overcast
8:55 PM 61.2 °F 52.7 °F 74% 29.89 in 10.0 mi ENE 6.9 mph - N/A   Overcast
9:15 PM 61.0 °F 53.1 °F 75% 29.90 in 10.0 mi ENE 4.6 mph - N/A   Overcast
9:35 PM 60.6 °F 53.6 °F 78% 29.90 in 7.0 mi Calm Calm - N/A Rain Rain
9:55 PM 60.4 °F 53.8 °F 79% 29.90 in 10.0 mi NE 5.8 mph - N/A   Overcast
10:15 PM 59.7 °F 54.5 °F 83% 29.90 in 7.0 mi NE 5.8 mph - N/A   Overcast
10:35 PM 58.8 °F 54.7 °F 86% 29.90 in 5.0 mi ENE 9.2 mph - N/A   Overcast
10:55 PM 58.5 °F 55.2 °F 89% 29.90 in 10.0 mi NE 5.8 mph - N/A   Overcast
11:15 PM 59.0 °F 55.4 °F 88% 29.90 in 10.0 mi NE 5.8 mph - N/A   Overcast
11:35 PM 59.0 °F 54.9 °F 86% 29.89 in 10.0 mi NNE 4.6 mph - N/A   Overcast
11:55 PM 59.2 °F 54.7 °F 85% 29.89 in 10.0 mi NNE 5.8 mph - N/A   Overcast